Regional Weather Roundup
Issued by NWS

Home | Current Version | Previous Version | Graphics & Text | Print | Product List | Glossary On
Versions: 1 2 3 4 5 6 7 8 9 10 11 12 13 14 15 16 17 18 19 20 21 22 23 24 25 26 27 28 29 30 31 32 33 34 35 36 37 38 39 40 41 42 43 44 45 46 47 48 49 50
000
ASUS43 KBIS 101510
RWRND

NORTH DAKOTA REGIONAL WEATHER ROUNDUP
NATIONAL WEATHER SERVICE BISMARCK ND
900 AM CST SUN DEC 10 2017

NOTE: "FAIR" INDICATES FEW OR NO CLOUDS BELOW 12,000 FEET WITH NO
SIGNIFICANT WEATHER AND/OR OBSTRUCTIONS TO VISIBILITY.


NDZ001>003-009>011-017-101600-
NORTHWEST NORTH DAKOTA

CITY           SKY/WX    TMP DP  RH WIND       PRES   REMARKS
WILLISTON      CLOUDY    33  20  58 SW6       30.07F
MINOT          CLOUDY    37  23  56 W15       29.99S
MINOT AFB      CLOUDY    35  23  61 NW13      29.98S
$$

NDZ018>021-031>035-040>046-101600-
SOUTHWEST NORTH DAKOTA

CITY           SKY/WX    TMP DP  RH WIND       PRES   REMARKS
BISMARCK       CLOUDY    33  21  61 W7        30.06S
DICKINSON      CLOUDY    35  18  49 W20       30.07S
GARRISON         N/A     33  21  61 NW9       30.02S
HETTINGER ARPT CLEAR     35  14  42 W15       30.13S
$$

NDZ004>008-012>016-024-026-027-054-101600-
NORTHEAST NORTH DAKOTA

CITY           SKY/WX    TMP DP  RH WIND       PRES   REMARKS
GRAND FORKS    CLOUDY    19  16  88 NW5       30.02R WCI  12
GRND FRKS AFB  FLURRIES  18  15  91 NW5       30.03R WCI  11
DEVILS LAKE    CLOUDY    22  20  92 CALM      30.00R
$$

NDZ022-023-025-028>030-036>039-047>053-101600-
SOUTHEAST NORTH DAKOTA

CITY           SKY/WX    TMP DP  RH WIND       PRES   REMARKS
FARGO          CLOUDY    17  15  92 N6        30.03S WCI   9
JAMESTOWN      CLOUDY    27  23  85 W10       30.00R WCI  17
$$




USA.gov is the U.S. government's official web portal to all federal, state and local government web resources and services.